Location: *
(46.1200°N, 11.2700°E)
Time: 00:09:25
(UTC+00:00)

Cosmos 2263 Rocket - Pass Details

Date: 02 March 2021
Orbit: 825 x 847 km, 71.0° (Epoch: 18 April)

Event Time Altitude Azimuth Distance (km) Brightness Sun altitude
Rises 18:04:56 0° 327° (NNW) 3,372 5.9 -11.6°
Reaches altitude 10° 18:07:29 10° 321° (NW) 2,434 5.2 -12.0°
Maximum altitude 18:12:40 41° 253° (WSW) 1,182 3.6 -12.9°
Drops below altitude 10° 18:17:49 10° 184° (S) 2,422 4.6 -13.8°
Sets 18:20:21 0° 178° (S) 3,353 5.2 -14.2°
